When you browse on this site, cookies collect data to enhance your experience and personalize the content and advertising you see.
Visit our Privacy Policy to learn more. By continuing to use the site, you agree to this use of cookies and data.
  • în România
  • Lista ţărilor
  • Pe 7 zile
  • Temperatura apei
  • Meteo pe hartă
  • Widget-uri
  • user-avatar
    Intrare

    Meteo pe oră la Galway

    Astăzi, 25 August, Duminică

    Timp Temperatura Precipitaţii Vânt Presiune Umiditate
    00:00 +16°C° 0 mm 2 m/s 761 mmHg 95%
    01:00 +15°C° 0 mm 1 m/s 761 mmHg 96%
    02:00 +15°C° 0 mm 1 m/s 761 mmHg 97%
    03:00 +15°C° 0 mm 1 m/s 761 mmHg 96%
    04:00 +15°C° 0 mm 1 m/s 761 mmHg 95%
    05:00 +15°C° 0 mm 2 m/s 761 mmHg 95%
    06:00 +16°C° 0 mm 2 m/s 762 mmHg 92%
    07:00 +17°C° 0 mm 2 m/s 762 mmHg 90%
    08:00 +18°C° 0 mm 2 m/s 763 mmHg 87%
    09:00 +18°C° 0 mm 2 m/s 763 mmHg 84%
    10:00 +19°C° 0 mm 2 m/s 763 mmHg 81%
    11:00 +20°C° 0 mm 3 m/s 763 mmHg 78%
    12:00 +20°C° 0.1 mm 3 m/s 763 mmHg 79%
    13:00 +19°C° 0.1 mm 4 m/s 763 mmHg 79%
    14:00 +19°C° 0.1 mm 4 m/s 763 mmHg 80%
    15:00 +19°C° 0 mm 4 m/s 763 mmHg 81%
    16:00 +18°C° 0 mm 4 m/s 763 mmHg 82%
    17:00 +17°C° 0 mm 4 m/s 763 mmHg 84%
    18:00 +16°C° 0 mm 3 m/s 763 mmHg 87%
    19:00 +14°C° 0 mm 3 m/s 763 mmHg 90%
    20:00 +12°C° 0 mm 3 m/s 764 mmHg 92%
    21:00 +12°C° 0 mm 3 m/s 763 mmHg 93%
    22:00 +11°C° 0 mm 3 m/s 763 mmHg 94%
    23:00 +12°C° 0 mm 2 m/s 763 mmHg 95%

    Mâine, 26 August, Luni

    Timp Temperatura Precipitaţii Vânt Presiune Umiditate
    00:00 +11°C° 0 mm 3 m/s 763 mmHg 96%
    01:00 +11°C° 0 mm 3 m/s 763 mmHg 96%
    02:00 +11°C° 0 mm 3 m/s 763 mmHg 97%
    03:00 +11°C° 0 mm 3 m/s 762 mmHg 97%
    04:00 +11°C° 0 mm 3 m/s 762 mmHg 97%
    05:00 +11°C° 0 mm 4 m/s 762 mmHg 97%
    06:00 +12°C° 0 mm 4 m/s 762 mmHg 93%
    07:00 +13°C° 0 mm 4 m/s 762 mmHg 90%
    08:00 +14°C° 0 mm 5 m/s 762 mmHg 86%
    09:00 +15°C° 0 mm 5 m/s 762 mmHg 84%
    10:00 +16°C° 0 mm 5 m/s 762 mmHg 83%
    11:00 +16°C° 0 mm 5 m/s 762 mmHg 81%
    12:00 +16°C° 0 mm 5 m/s 761 mmHg 81%
    13:00 +16°C° 0 mm 5 m/s 761 mmHg 81%
    14:00 +17°C° 0 mm 5 m/s 761 mmHg 81%
    15:00 +16°C° 0.1 mm 5 m/s 761 mmHg 84%
    16:00 +15°C° 0.1 mm 5 m/s 761 mmHg 87%
    17:00 +15°C° 0.1 mm 5 m/s 761 mmHg 90%
    18:00 +14°C° 0.4 mm 5 m/s 761 mmHg 91%
    19:00 +14°C° 0.4 mm 4 m/s 761 mmHg 93%
    20:00 +14°C° 0.4 mm 4 m/s 761 mmHg 94%
    21:00 +14°C° 0.5 mm 4 m/s 761 mmHg 95%
    22:00 +14°C° 0.5 mm 4 m/s 760 mmHg 96%
    23:00 +14°C° 0.5 mm 4 m/s 760 mmHg 97%

    Poimâine, 27 August, Marţi

    Timp Temperatura Precipitaţii Vânt Presiune Umiditate
    00:00 +14°C° 0.2 mm 4 m/s 760 mmHg 96%
    01:00 +13°C° 0.2 mm 4 m/s 760 mmHg 96%
    02:00 +13°C° 0.2 mm 3 m/s 759 mmHg 96%
    03:00 +13°C° 0.1 mm 3 m/s 759 mmHg 96%
    04:00 +13°C° 0.1 mm 4 m/s 759 mmHg 96%
    05:00 +14°C° 0.1 mm 4 m/s 759 mmHg 96%
    06:00 +14°C° 0.1 mm 4 m/s 759 mmHg 95%
    07:00 +14°C° 0.1 mm 4 m/s 759 mmHg 95%
    08:00 +14°C° 0.1 mm 4 m/s 759 mmHg 94%
    09:00 +15°C° 0.3 mm 4 m/s 759 mmHg 93%
    10:00 +15°C° 0.3 mm 4 m/s 759 mmHg 92%
    11:00 +17°C° 0.3 mm 4 m/s 759 mmHg 91%
    12:00 +17°C° 0.2 mm 5 m/s 758 mmHg 88%
    13:00 +17°C° 0.2 mm 5 m/s 758 mmHg 86%
    14:00 +19°C° 0.2 mm 5 m/s 758 mmHg 84%
    15:00 +18°C° 0.9 mm 4 m/s 758 mmHg 88%
    16:00 +17°C° 0.9 mm 4 m/s 758 mmHg 92%
    17:00 +15°C° 0.9 mm 4 m/s 758 mmHg 96%
    18:00 +15°C° 2.2 mm 4 m/s 758 mmHg 96%
    19:00 +14°C° 2.2 mm 4 m/s 758 mmHg 96%
    20:00 +14°C° 2.2 mm 4 m/s 758 mmHg 96%
    21:00 +14°C° 0.3 mm 3 m/s 758 mmHg 97%
    22:00 +14°C° 0.3 mm 3 m/s 757 mmHg 97%
    23:00 +14°C° 0.3 mm 3 m/s 757 mmHg 97%

    28 August, Miercuri

    Timp Temperatura Precipitaţii Vânt Presiune Umiditate
    00:00 +13°C° 0.1 mm 3 m/s 757 mmHg 96%
    01:00 +13°C° 0.1 mm 3 m/s 757 mmHg 96%
    02:00 +13°C° 0.1 mm 3 m/s 757 mmHg 95%
    03:00 +12°C° 0 mm 3 m/s 757 mmHg 95%
    04:00 +13°C° 0 mm 2 m/s 757 mmHg 95%
    05:00 +13°C° 0 mm 2 m/s 757 mmHg 94%
    06:00 +13°C° 0 mm 2 m/s 757 mmHg 91%
    07:00 +13°C° 0 mm 3 m/s 757 mmHg 87%
    08:00 +13°C° 0 mm 3 m/s 757 mmHg 84%
    09:00 +14°C° 0 mm 3 m/s 757 mmHg 78%
    10:00 +16°C° 0 mm 3 m/s 757 mmHg 73%
    11:00 +16°C° 0 mm 3 m/s 757 mmHg 68%
    12:00 +17°C° 0 mm 4 m/s 757 mmHg 67%
    13:00 +17°C° 0 mm 4 m/s 757 mmHg 65%
    14:00 +17°C° 0 mm 4 m/s 757 mmHg 64%
    15:00 +15°C° 0 mm 4 m/s 757 mmHg 68%
    16:00 +15°C° 0 mm 4 m/s 757 mmHg 72%
    17:00 +14°C° 0 mm 4 m/s 757 mmHg 76%
    18:00 +13°C° 0 mm 4 m/s 758 mmHg 81%
    19:00 +12°C° 0 mm 4 m/s 758 mmHg 86%
    20:00 +11°C° 0 mm 4 m/s 759 mmHg 92%
    21:00 +10°C° 0 mm 4 m/s 759 mmHg 91%
    22:00 +10°C° 0 mm 4 m/s 759 mmHg 91%
    23:00 +10°C° 0 mm 4 m/s 759 mmHg 91%

    29 August, Joi

    Timp Temperatura Precipitaţii Vânt Presiune Umiditate
    00:00 +10°C° 0 mm 4 m/s 759 mmHg 91%
    01:00 +9°C° 0 mm 5 m/s 759 mmHg 90%
    02:00 +9°C° 0 mm 5 m/s 758 mmHg 89%
    03:00 +10°C° 0 mm 6 m/s 758 mmHg 89%
    04:00 +11°C° 0 mm 7 m/s 758 mmHg 88%
    05:00 +12°C° 0 mm 7 m/s 758 mmHg 87%
    06:00 +12°C° 0.2 mm 8 m/s 758 mmHg 87%
    07:00 +13°C° 0.2 mm 8 m/s 758 mmHg 87%
    08:00 +15°C° 0.2 mm 8 m/s 758 mmHg 87%
    09:00 +15°C° 0.3 mm 9 m/s 758 mmHg 87%
    10:00 +15°C° 0.3 mm 9 m/s 758 mmHg 86%
    11:00 +16°C° 0.3 mm 9 m/s 759 mmHg 86%
    12:00 +16°C° 0.3 mm 9 m/s 759 mmHg 86%
    13:00 +16°C° 0.3 mm 9 m/s 759 mmHg 85%
    14:00 +16°C° 0.3 mm 9 m/s 759 mmHg 85%
    15:00 +16°C° 0.2 mm 8 m/s 759 mmHg 86%
    16:00 +15°C° 0.2 mm 8 m/s 759 mmHg 87%
    17:00 +15°C° 0.2 mm 8 m/s 759 mmHg 89%
    18:00 +15°C° 0.1 mm 8 m/s 760 mmHg 89%
    19:00 +15°C° 0.1 mm 7 m/s 760 mmHg 90%
    20:00 +14°C° 0.1 mm 7 m/s 760 mmHg 91%
    21:00 +14°C° 0.1 mm 7 m/s 760 mmHg 91%
    22:00 +14°C° 0.1 mm 7 m/s 760 mmHg 91%
    23:00 +14°C° 0.1 mm 7 m/s 760 mmHg 91%

    30 August, Vineri

    Timp Temperatura Precipitaţii Vânt Presiune Umiditate
    00:00 +14°C° 0.1 mm 6 m/s 761 mmHg 91%
    01:00 +14°C° 0.1 mm 6 m/s 761 mmHg 91%
    02:00 +13°C° 0.1 mm 6 m/s 761 mmHg 91%
    03:00 +13°C° 0.1 mm 6 m/s 761 mmHg 92%
    04:00 +13°C° 0.1 mm 5 m/s 761 mmHg 93%
    05:00 +13°C° 0.1 mm 5 m/s 761 mmHg 93%
    06:00 +14°C° 0 mm 5 m/s 761 mmHg 92%
    07:00 +14°C° 0 mm 5 m/s 761 mmHg 90%
    08:00 +15°C° 0 mm 6 m/s 761 mmHg 88%
    09:00 +15°C° 0.3 mm 6 m/s 761 mmHg 87%
    10:00 +16°C° 0.3 mm 6 m/s 760 mmHg 87%
    11:00 +16°C° 0.3 mm 7 m/s 760 mmHg 86%
    12:00 +15°C° 0.2 mm 7 m/s 759 mmHg 88%
    13:00 +15°C° 0.2 mm 7 m/s 758 mmHg 89%
    14:00 +15°C° 0.2 mm 7 m/s 757 mmHg 90%
    15:00 +15°C° 1.3 mm 8 m/s 756 mmHg 91%
    16:00 +15°C° 1.3 mm 9 m/s 755 mmHg 93%
    17:00 +14°C° 1.3 mm 10 m/s 754 mmHg 95%
    18:00 +14°C° 0.3 mm 10 m/s 754 mmHg 94%
    19:00 +15°C° 0.3 mm 9 m/s 754 mmHg 93%
    20:00 +15°C° 0.3 mm 9 m/s 755 mmHg 93%
    21:00 +13°C° 0 mm 8 m/s 755 mmHg 92%
    22:00 +12°C° 0 mm 7 m/s 756 mmHg 92%
    23:00 +12°C° 0 mm 5 m/s 757 mmHg 91%
    Arată mai mult